Location: Peterborough
(44.3091°N, 78.3197°W)
Time: 07:21:28
(UTC-04:00)

Vanguard 2 - Pass Details

Date: 30 March 2023
Orbit: 552 x 2926 km, 32.9° (Epoch: 04 June)

Event Time Altitude Azimuth Distance (km) Brightness Sun altitude
Rises 03:39:25 0° 208° (SSW) 6,196 - -32.5°
Reaches altitude 10° 03:44:04 10° 198° (SSW) 5,428 - -31.9°
Exits shadow 03:50:35 23° 178° (S) 4,610 11.1 -31.1°
Maximum altitude 03:57:34 30° 146° (SE) 4,278 11.1 -30.2°
Drops below altitude 10° 04:11:05 10° 94° (E) 5,475 12.4 -28.3°
Sets 04:15:43 0° 85° (E) 6,261 13.0 -27.7°
